| time (UTC) | temp F | wind direction | speed MPH | gust MPH | rain 1hr in | rain 24hr in | rain mn in | humidity % | barometer mb |
| 20260506091059 | 76 | 112 | 5.0 | 7.0 | 0.00 | 0.01 | 0.01 | 98 | 1007.1 |
| 20260506090057 | 76 | 112 | 5.0 | 7.0 | 0.00 | 0.01 | 0.01 | 98 | 1007.1 |
| 20260506084556 | 76 | 107 | 6.0 | 8.0 | 0.00 | 0.01 | 0.01 | 98 | 1007.1 |
| 20260506083558 | 76 | 117 | 5.0 | 7.0 | 0.00 | 0.01 | 0.01 | 98 | 1007.1 |
| 20260506082556 | 76 | 114 | 6.0 | 8.0 | 0.00 | 0.01 | 0.01 | 98 | 1007.2 |
| 20260506081556 | 76 | 113 | 6.0 | 8.0 | 0.00 | 0.01 | 0.01 | 98 | 1007.2 |
| 20260506081056 | 76 | 112 | 5.0 | 6.0 | 0.00 | 0.01 | 0.01 | 98 | 1007.3 |
| 20260506080556 | 76 | 116 | 6.0 | 8.0 | 0.01 | 0.01 | 0.01 | 98 | 1007.3 |
| 20260506073056 | 76 | 111 | 5.0 | 6.0 | 0.01 | 0.01 | 0.01 | 98 | 1007.6 |
| 20260506072555 | 76 | 110 | 4.0 | 6.0 | 0.01 | 0.01 | 0.01 | 98 | 1007.7 |
| 20260506072056 | 76 | 136 | 3.0 | 5.0 | 0.01 | 0.01 | 0.01 | 96 | 1007.8 |
| 20260506071556 | 76 | 153 | 4.0 | 8.0 | 0.01 | 0.01 | 0.01 | 96 | 1007.9 |
| 20260506071055 | 76 | 148 | 6.0 | 8.0 | 0.01 | 0.01 | 0.01 | 96 | 1007.9 |
| 20260506070555 | 76 | 128 | 6.0 | 8.0 | 0.00 | 0.00 | 0.00 | 95 | 1008.0 |
| 20260506062056 | 77 | 143 | 7.0 | 10.0 | 0.00 | 0.00 | 0.00 | 93 | 1008.3 |
| 20260506061555 | 77 | 148 | 8.0 | 12.0 | 0.00 | 0.00 | 0.00 | 93 | 1008.3 |
| 20260506061055 | 77 | 152 | 7.0 | 10.0 | 0.00 | 0.00 | 0.00 | 93 | 1008.3 |
| 20260506060555 | 77 | 144 | 7.0 | 12.0 | 0.00 | 0.00 | 0.00 | 93 | 1008.3 |
| 20260506051055 | 77 | 140 | 9.0 | 13.0 | 0.00 | 0.00 | 0.00 | 92 | 1007.9 |
| 20260506050554 | 77 | 142 | 10.0 | 16.0 | 0.00 | 0.00 | 0.00 | 92 | 1007.9 |
| 20260506045053 | 77 | 137 | 11.0 | 16.0 | 0.00 | 0.00 | 0.00 | 92 | 1007.9 |
| 20260506044054 | 77 | 137 | 12.0 | 15.0 | 0.00 | 0.00 | 0.00 | 92 | 1007.8 |
| 20260506043554 | 77 | 141 | 12.0 | 18.0 | 0.00 | 0.00 | 0.00 | 93 | 1007.7 |
| 20260506043054 | 77 | 137 | 11.0 | 16.0 | 0.00 | 0.00 | 0.00 | 92 | 1007.7 |
| 20260506042554 | 77 | 136 | 12.0 | 18.0 | 0.00 | 0.00 | 0.00 | 92 | 1007.7 |
| 20260506041553 | 77 | 143 | 13.0 | 20.0 | 0.00 | 0.00 | 0.00 | 92 | 1007.6 |
| 20260506041053 | 77 | 139 | 11.0 | 18.0 | 0.00 | 0.00 | 0.00 | 92 | 1007.6 |
| 20260506040053 | 77 | 136 | 10.0 | 15.0 | 0.00 | 0.00 | 0.00 | 92 | 1007.6 |
| 20260506035553 | 77 | 133 | 12.0 | 20.0 | 0.00 | 0.00 | 0.00 | 92 | 1007.7 |
| 20260506035054 | 77 | 135 | 12.0 | 18.0 | 0.00 | 0.00 | 0.00 | 92 | 1007.6 |
| 20260506034553 | 77 | 138 | 12.0 | 16.0 | 0.00 | 0.00 | 0.00 | 92 | 1007.6 |
| 20260506034054 | 77 | 142 | 11.0 | 15.0 | 0.00 | 0.00 | 0.00 | 92 | 1007.6 |
| 20260506033553 | 77 | 137 | 11.0 | 15.0 | 0.00 | 0.00 | 0.00 | 92 | 1007.6 |
| 20260506033053 | 78 | 134 | 10.0 | 15.0 | 0.00 | 0.00 | 0.00 | 92 | 1007.6 |
| 20260506032554 | 77 | 139 | 9.0 | 14.0 | 0.00 | 0.00 | 0.00 | 92 | 1007.6 |
| 20260506032053 | 78 | 143 | 10.0 | 13.0 | 0.00 | 0.00 | 0.00 | 92 | 1007.6 |
| 20260506031053 | 78 | 146 | 7.0 | 12.0 | 0.00 | 0.00 | 0.00 | 92 | 1007.6 |
| 20260506030552 | 78 | 138 | 10.0 | 12.0 | 0.00 | 0.00 | 0.00 | 92 | 1007.5 |
| 20260506030052 | 78 | 135 | 9.0 | 13.0 | 0.00 | 0.00 | 0.00 | 92 | 1007.4 |
| 20260506025553 | 78 | 138 | 10.0 | 13.0 | 0.00 | 0.00 | 0.00 | 91 | 1007.4 |
| 20260506024553 | 78 | 138 | 9.0 | 12.0 | 0.00 | 0.00 | 0.00 | 91 | 1007.2 |
| 20260506024053 | 78 | 145 | 9.0 | 15.0 | 0.00 | 0.00 | 0.00 | 91 | 1007.2 |
| 20260506023552 | 78 | 139 | 8.0 | 12.0 | 0.00 | 0.00 | 0.00 | 91 | 1007.0 |
| 20260506023052 | 78 | 144 | 10.0 | 15.0 | 0.00 | 0.00 | 0.00 | 91 | 1007.0 |
| 20260506022552 | 78 | 135 | 10.0 | 13.0 | 0.00 | 0.00 | 0.00 | 91 | 1007.0 |
| 20260506022053 | 78 | 140 | 9.0 | 15.0 | 0.00 | 0.00 | 0.00 | 91 | 1007.0 |
| 20260506021552 | 78 | 150 | 9.0 | 13.0 | 0.00 | 0.00 | 0.00 | 91 | 1006.9 |
| 20260506021052 | 78 | 141 | 9.0 | 13.0 | 0.00 | 0.00 | 0.00 | 91 | 1006.8 |
| 20260506020552 | 78 | 147 | 11.0 | 15.0 | 0.00 | 0.00 | 0.00 | 89 | 1006.7 |
| 20260506020051 | 78 | 139 | 10.0 | 13.0 | 0.00 | 0.00 | 0.00 | 89 | 1006.7 |
| 20260506015052 | 78 | 145 | 10.0 | 15.0 | 0.00 | 0.00 | 0.00 | 89 | 1006.6 |
| 20260506014052 | 78 | 149 | 10.0 | 15.0 | 0.00 | 0.00 | 0.00 | 89 | 1006.3 |
| 20260506013553 | 78 | 144 | 9.0 | 14.0 | 0.00 | 0.00 | 0.00 | 89 | 1006.4 |
| 20260506013052 | 78 | 149 | 9.0 | 13.0 | 0.00 | 0.00 | 0.00 | 89 | 1006.4 |
| 20260506012551 | 78 | 145 | 11.0 | 16.0 | 0.00 | 0.00 | 0.00 | 89 | 1006.3 |
| 20260506012052 | 78 | 141 | 10.0 | 18.0 | 0.00 | 0.00 | 0.00 | 89 | 1006.3 |
| 20260506011051 | 78 | 143 | 11.0 | 15.0 | 0.00 | 0.00 | 0.00 | 88 | 1006.1 |
| 20260506010551 | 78 | 136 | 11.0 | 16.0 | 0.00 | 0.00 | 0.00 | 88 | 1006.0 |
| 20260506010051 | 79 | 142 | 9.0 | 15.0 | 0.00 | 0.00 | 0.00 | 87 | 1006.0 |
| 20260506005551 | 79 | 141 | 10.0 | 20.0 | 0.00 | 0.00 | 0.00 | 87 | 1006.0 |
| 20260506003550 | 79 | 137 | 10.0 | 14.0 | 0.00 | 0.00 | 0.00 | 86 | 1005.7 |
| 20260506003051 | 79 | 148 | 9.0 | 14.0 | 0.00 | 0.00 | 0.00 | 86 | 1005.6 |
| 20260506002550 | 79 | 145 | 10.0 | 16.0 | 0.00 | 0.00 | 0.00 | 85 | 1005.6 |
| 20260506002051 | 80 | 151 | 12.0 | 18.0 | 0.00 | 0.00 | 0.00 | 85 | 1005.6 |
| 20260506001551 | 80 | 150 | 14.0 | 21.0 | 0.00 | 0.00 | 0.00 | 84 | 1005.7 |
| 20260506001051 | 80 | 146 | 12.0 | 20.0 | 0.00 | 0.00 | 0.00 | 84 | 1005.6 |
| 20260506000050 | 80 | 141 | 14.0 | 23.0 | 0.00 | 0.00 | 0.00 | 84 | 1005.6 |
| 20260505235550 | 80 | 150 | 12.0 | 23.0 | 0.00 | 0.00 | 0.00 | 84 | 1005.6 |
| 20260505234550 | 80 | 156 | 13.0 | 22.0 | 0.00 | 0.00 | 0.00 | 82 | 1005.6 |
| 20260505234051 | 80 | 150 | 11.0 | 20.0 | 0.00 | 0.00 | 0.00 | 83 | 1005.6 |
| 20260505233550 | 80 | 147 | 13.0 | 23.0 | 0.00 | 0.00 | 0.00 | 82 | 1005.6 |
| 20260505233050 | 80 | 145 | 12.0 | 20.0 | 0.00 | 0.00 | 0.00 | 82 | 1005.7 |
| 20260505232550 | 81 | 154 | 13.0 | 20.0 | 0.00 | 0.00 | 0.00 | 82 | 1005.6 |
| 20260505231550 | 81 | 154 | 10.0 | 18.0 | 0.00 | 0.00 | 0.00 | 82 | 1005.7 |
| 20260505231051 | 81 | 144 | 11.0 | 15.0 | 0.00 | 0.00 | 0.00 | 82 | 1005.7 |
| 20260505230550 | 81 | 141 | 12.0 | 20.0 | 0.00 | 0.00 | 0.00 | 82 | 1005.7 |
| 20260505230049 | 81 | 144 | 12.0 | 18.0 | 0.00 | 0.00 | 0.00 | 81 | 1005.7 |
| 20260505225550 | 81 | 143 | 12.0 | 21.0 | 0.00 | 0.00 | 0.00 | 81 | 1005.7 |
| 20260505225050 | 81 | 147 | 10.0 | 20.0 | 0.00 | 0.00 | 0.00 | 81 | 1005.9 |
| 20260505224550 | 81 | 157 | 10.0 | 20.0 | 0.00 | 0.00 | 0.00 | 82 | 1006.0 |
| 20260505224050 | 81 | 148 | 13.0 | 20.0 | 0.00 | 0.00 | 0.00 | 81 | 1006.0 |
| 20260505223550 | 81 | 163 | 11.0 | 18.0 | 0.00 | 0.00 | 0.00 | 81 | 1006.0 |
| 20260505223049 | 81 | 158 | 12.0 | 20.0 | 0.00 | 0.00 | 0.00 | 81 | 1006.0 |
| 20260505222049 | 81 | 150 | 9.0 | 18.0 | 0.00 | 0.00 | 0.00 | 82 | 1006.1 |
| 20260505221549 | 82 | 150 | 11.0 | 18.0 | 0.00 | 0.00 | 0.00 | 81 | 1006.1 |
| 20260505221050 | 82 | 142 | 14.0 | 20.0 | 0.00 | 0.00 | 0.00 | 81 | 1006.1 |
| 20260505220549 | 82 | 145 | 13.0 | 20.0 | 0.00 | 0.00 | 0.00 | 80 | 1006.1 |
| 20260505220048 | 82 | 148 | 13.0 | 20.0 | 0.00 | 0.00 | 0.00 | 79 | 1006.1 |
| 20260505215549 | 82 | 146 | 13.0 | 20.0 | 0.00 | 0.00 | 0.00 | 80 | 1006.1 |
| 20260505214548 | 82 | 156 | 12.0 | 20.0 | 0.00 | 0.00 | 0.00 | 79 | 1006.1 |
| 20260505214050 | 82 | 147 | 12.0 | 21.0 | 0.00 | 0.00 | 0.00 | 80 | 1006.2 |
| 20260505213548 | 82 | 146 | 13.0 | 21.0 | 0.00 | 0.00 | 0.00 | 79 | 1006.4 |
| 20260505213049 | 82 | 139 | 10.0 | 16.0 | 0.00 | 0.00 | 0.00 | 80 | 1006.5 |
| 20260505212549 | 82 | 154 | 11.0 | 18.0 | 0.00 | 0.00 | 0.00 | 79 | 1006.6 |
| 20260505212048 | 82 | 149 | 12.0 | 20.0 | 0.00 | 0.00 | 0.00 | 79 | 1006.7 |
| 20260505211548 | 82 | 164 | 12.0 | 23.0 | 0.00 | 0.00 | 0.00 | 79 | 1006.7 |
| 20260505211049 | 82 | 142 | 13.0 | 25.0 | 0.00 | 0.00 | 0.00 | 79 | 1006.7 |
| 20260505210548 | 82 | 140 | 15.0 | 20.0 | 0.00 | 0.00 | 0.00 | 78 | 1006.8 |
| 20260505210048 | 82 | 141 | 13.0 | 22.0 | 0.00 | 0.00 | 0.00 | 78 | 1006.8 |
| 20260505205049 | 83 | 137 | 13.0 | 23.0 | 0.00 | 0.00 | 0.00 | 78 | 1006.9 |
| 20260505204547 | 84 | 150 | 15.0 | 23.0 | 0.00 | 0.00 | 0.00 | 77 | 1006.9 |
| 20260505204048 | 84 | 147 | 10.0 | 15.0 | 0.00 | 0.00 | 0.00 | 77 | 1006.9 |
| 20260505203549 | 83 | 143 | 16.0 | 21.0 | 0.00 | 0.00 | 0.00 | 78 | 1007.0 |
| 20260505202048 | 82 | 142 | 15.0 | 21.0 | 0.00 | 0.00 | 0.00 | 79 | 1007.2 |
| 20260505201547 | 82 | 145 | 14.0 | 22.0 | 0.00 | 0.00 | 0.00 | 79 | 1007.2 |
| 20260505201048 | 82 | 147 | 16.0 | 21.0 | 0.00 | 0.00 | 0.00 | 79 | 1007.3 |
| 20260505200047 | 83 | 151 | 14.0 | 22.0 | 0.00 | 0.00 | 0.00 | 80 | 1007.4 |
| 20260505195547 | 81 | 149 | 14.0 | 21.0 | 0.00 | 0.00 | 0.00 | 82 | 1007.5 |
| 20260505194547 | 81 | 165 | 12.0 | 20.0 | 0.00 | 0.00 | 0.00 | 82 | 1007.6 |
| 20260505194047 | 81 | 148 | 9.0 | 16.0 | 0.00 | 0.00 | 0.00 | 82 | 1007.7 |
| 20260505193547 | 81 | 144 | 10.0 | 15.0 | 0.00 | 0.00 | 0.00 | 82 | 1007.8 |
| 20260505193047 | 81 | 143 | 10.0 | 14.0 | 0.00 | 0.00 | 0.00 | 82 | 1007.8 |
| 20260505192547 | 81 | 141 | 10.0 | 13.0 | 0.00 | 0.00 | 0.00 | 82 | 1007.8 |
| 20260505192047 | 80 | 150 | 8.0 | 14.0 | 0.00 | 0.00 | 0.00 | 84 | 1007.9 |
| 20260505191547 | 81 | 154 | 9.0 | 14.0 | 0.00 | 0.00 | 0.00 | 82 | 1007.9 |
| 20260505191047 | 81 | 150 | 9.0 | 20.0 | 0.00 | 0.00 | 0.00 | 82 | 1007.9 |
| 20260505190547 | 81 | 156 | 10.0 | 16.0 | 0.00 | 0.00 | 0.00 | 82 | 1007.9 |
| 20260505190046 | 81 | 153 | 8.0 | 12.0 | 0.00 | 0.00 | 0.00 | 82 | 1008.0 |
| 20260505185549 | 80 | 157 | 8.0 | 12.0 | 0.00 | 0.00 | 0.00 | 82 | 1008.0 |
| 20260505185046 | 80 | 174 | 9.0 | 15.0 | 0.00 | 0.00 | 0.00 | 82 | 1008.0 |
| 20260505184546 | 80 | 151 | 9.0 | 18.0 | 0.00 | 0.00 | 0.00 | 84 | 1008.1 |
| 20260505184046 | 80 | 142 | 10.0 | 20.0 | 0.00 | 0.00 | 0.00 | 82 | 1008.2 |
| 20260505183547 | 80 | 138 | 12.0 | 20.0 | 0.00 | 0.00 | 0.00 | 82 | 1008.2 |
| 20260505183047 | 81 | 145 | 10.0 | 18.0 | 0.00 | 0.00 | 0.00 | 84 | 1008.2 |
| 20260505182046 | 81 | 137 | 12.0 | 20.0 | 0.00 | 0.00 | 0.00 | 83 | 1008.1 |
| 20260505181547 | 81 | 141 | 9.0 | 15.0 | 0.00 | 0.00 | 0.00 | 82 | 1008.1 |
| 20260505181046 | 81 | 163 | 10.0 | 15.0 | 0.00 | 0.00 | 0.00 | 80 | 1008.2 |
| 20260505180047 | 81 | 138 | 10.0 | 16.0 | 0.00 | 0.00 | 0.00 | 81 | 1008.2 |
| 20260505175545 | 81 | 152 | 12.0 | 20.0 | 0.00 | 0.00 | 0.00 | 80 | 1008.2 |
| 20260505175046 | 81 | 160 | 9.0 | 16.0 | 0.00 | 0.00 | 0.00 | 80 | 1008.2 |
| 20260505174046 | 80 | 165 | 9.0 | 16.0 | 0.00 | 0.00 | 0.00 | 81 | 1008.3 |
| 20260505173546 | 80 | 159 | 6.0 | 12.0 | 0.00 | 0.00 | 0.00 | 82 | 1008.3 |
| 20260505173046 | 81 | 165 | 6.0 | 12.0 | 0.00 | 0.00 | 0.00 | 81 | 1008.4 |
| 20260505172545 | 81 | 178 | 9.0 | 13.0 | 0.00 | 0.00 | 0.00 | 80 | 1008.5 |
| 20260505172046 | 81 | 182 | 6.0 | 13.0 | 0.00 | 0.00 | 0.00 | 81 | 1008.5 |
| 20260505171546 | 80 | 172 | 7.0 | 16.0 | 0.00 | 0.00 | 0.00 | 81 | 1008.6 |
| 20260505171045 | 81 | 180 | 7.0 | 16.0 | 0.00 | 0.00 | 0.00 | 80 | 1008.6 |
| 20260505170046 | 80 | 174 | 9.0 | 14.0 | 0.00 | 0.00 | 0.00 | 82 | 1008.6 |
| 20260505165546 | 80 | 183 | 6.0 | 14.0 | 0.00 | 0.00 | 0.00 | 84 | 1008.7 |
| 20260505165045 | 80 | 177 | 5.0 | 10.0 | 0.00 | 0.00 | 0.00 | 85 | 1008.8 |
| 20260505164546 | 79 | 174 | 8.0 | 12.0 | 0.00 | 0.00 | 0.00 | 85 | 1008.8 |
| 20260505164045 | 79 | 160 | 5.0 | 9.0 | 0.00 | 0.00 | 0.00 | 86 | 1008.8 |
| 20260505163545 | 79 | 189 | 4.0 | 9.0 | 0.00 | 0.00 | 0.00 | 86 | 1008.7 |
| 20260505163045 | 79 | 197 | 4.0 | 10.0 | 0.00 | 0.00 | 0.00 | 87 | 1008.7 |
| 20260505162544 | 79 | 187 | 3.0 | 9.0 | 0.00 | 0.00 | 0.00 | 87 | 1008.7 |
| 20260505162045 | 79 | 187 | 5.0 | 9.0 | 0.00 | 0.00 | 0.00 | 87 | 1008.8 |
| 20260505161545 | 78 | 190 | 6.0 | 10.0 | 0.00 | 0.00 | 0.00 | 89 | 1008.7 |
| 20260505161044 | 77 | 186 | 6.0 | 12.0 | 0.00 | 0.00 | 0.00 | 89 | 1008.7 |
| 20260505153044 | 78 | 163 | 9.0 | 15.0 | 0.00 | 0.00 | 0.00 | 88 | 1008.6 |
| 20260505152545 | 78 | 165 | 7.0 | 14.0 | 0.00 | 0.00 | 0.00 | 89 | 1008.6 |
| 20260505152044 | 78 | 170 | 7.0 | 16.0 | 0.00 | 0.00 | 0.00 | 89 | 1008.6 |
| 20260505151044 | 77 | 159 | 5.0 | 10.0 | 0.00 | 0.00 | 0.00 | 92 | 1008.6 |
| 20260505140543 | 76 | 166 | 6.0 | 12.0 | 0.00 | 0.00 | 0.00 | 92 | 1008.5 |
| 20260505124543 | 74 | 150 | 6.0 | 9.0 | 0.00 | 0.00 | 0.00 | 95 | 1008.0 |
| 20260505124043 | 74 | 176 | 5.0 | 10.0 | 0.00 | 0.00 | 0.00 | 95 | 1008.1 |
| 20260505123042 | 74 | 154 | 6.0 | 10.0 | 0.00 | 0.00 | 0.00 | 95 | 1008.0 |
| 20260505122542 | 74 | 148 | 5.0 | 10.0 | 0.00 | 0.00 | 0.00 | 95 | 1008.0 |
| 20260505121542 | 74 | 152 | 5.0 | 10.0 | 0.00 | 0.00 | 0.00 | 95 | 1007.9 |
| 20260505121042 | 73 | 156 | 5.0 | 9.0 | 0.00 | 0.00 | 0.00 | 96 | 1007.8 |
| 20260505120543 | 73 | 155 | 5.0 | 8.0 | 0.00 | 0.00 | 0.00 | 96 | 1007.8 |
| 20260505120041 | 73 | 167 | 4.0 | 8.0 | 0.00 | 0.00 | 0.00 | 96 | 1007.9 |
| 20260505115042 | 73 | 159 | 6.0 | 9.0 | 0.00 | 0.00 | 0.00 | 95 | 1007.9 |
| 20260505114542 | 73 | 159 | 5.0 | 8.0 | 0.00 | 0.00 | 0.00 | 96 | 1007.9 |
| 20260505114042 | 73 | 152 | 4.0 | 7.0 | 0.00 | 0.00 | 0.00 | 96 | 1007.9 |
| 20260505113541 | 73 | 160 | 6.0 | 9.0 | 0.00 | 0.00 | 0.00 | 95 | 1007.9 |
| 20260505113042 | 73 | 151 | 6.0 | 12.0 | 0.00 | 0.00 | 0.00 | 96 | 1007.9 |
| 20260505112541 | 73 | 146 | 6.0 | 10.0 | 0.00 | 0.00 | 0.00 | 96 | 1007.9 |
| 20260505112041 | 73 | 148 | 6.0 | 10.0 | 0.00 | 0.00 | 0.00 | 96 | 1007.8 |
| 20260505111541 | 72 | 158 | 5.0 | 8.0 | 0.00 | 0.00 | 0.00 | 96 | 1007.7 |
| 20260505111041 | 72 | 144 | 5.0 | 10.0 | 0.00 | 0.00 | 0.00 | 96 | 1007.7 |
| 20260505110541 | 72 | 147 | 5.0 | 9.0 | 0.00 | 0.00 | 0.00 | 96 | 1007.7 |
| 20260505101541 | 71 | 143 | 4.0 | 7.0 | 0.00 | 0.00 | 0.00 | 97 | 1007.8 |
| 20260505101041 | 71 | 161 | 4.0 | 6.0 | 0.00 | 0.00 | 0.00 | 97 | 1007.8 |
| 20260505100541 | 71 | 144 | 5.0 | 6.0 | 0.00 | 0.00 | 0.00 | 97 | 1007.8 |
| 20260505100040 | 71 | 149 | 3.0 | 5.0 | 0.00 | 0.00 | 0.00 | 97 | 1008.0 |
| 20260505095540 | 71 | 142 | 3.0 | 5.0 | 0.00 | 0.00 | 0.00 | 97 | 1008.0 |
| 20260505095040 | 71 | 144 | 5.0 | 6.0 | 0.00 | 0.00 | 0.00 | 97 | 1008.0 |
| 20260505094540 | 70 | 147 | 3.0 | 5.0 | 0.00 | 0.00 | 0.00 | 97 | 1007.9 |
| 20260505094040 | 70 | 150 | 2.0 | 3.0 | 0.00 | 0.00 | 0.00 | 97 | 1008.1 |
| 20260505093540 | 70 | 165 | 2.0 | 5.0 | 0.00 | 0.00 | 0.00 | 97 | 1008.1 |
| 20260505093040 | 70 | 158 | 2.0 | 6.0 | 0.00 | 0.00 | 0.00 | 96 | 1008.0 |
| 20260505092540 | 70 | 159 | 2.0 | 5.0 | 0.00 | 0.00 | 0.00 | 96 | 1008.0 |
| 20260505092040 | 71 | 161 | 2.0 | 5.0 | 0.00 | 0.00 | 0.00 | 96 | 1008.1 |
| 20260505091540 | 71 | 153 | 1.0 | 6.0 | 0.00 | 0.00 | 0.00 | 96 | 1008.1 |